• In Belarus
  • List of Countries
  • For 7 days
  • Water Temperature
  • Weather Map
  • Weather Widgets
  • user-avatar
    Login

    Hourly Weather Kalgoorlie

    Today, 5 June, Friday

    Time Temperature Precipitation Wind Pressure Humidity
    00:00 +16°C° 0 mm 2 mps 736 mmHg 37%
    01:00 +16°C° 0 mm 2 mps 736 mmHg 38%
    02:00 +15°C° 0 mm 2 mps 735 mmHg 40%
    03:00 +14°C° 0 mm 2 mps 736 mmHg 41%
    04:00 +14°C° 0 mm 2 mps 736 mmHg 42%
    05:00 +13°C° 0 mm 1 mps 736 mmHg 43%
    06:00 +14°C° 0 mm 1 mps 736 mmHg 41%
    07:00 +15°C° 0 mm 2 mps 736 mmHg 39%
    08:00 +16°C° 0 mm 2 mps 737 mmHg 37%
    09:00 +18°C° 0 mm 2 mps 737 mmHg 34%
    10:00 +20°C° 0 mm 2 mps 737 mmHg 30%
    11:00 +23°C° 0 mm 1 mps 737 mmHg 26%
    12:00 +23°C° 0 mm 1 mps 737 mmHg 25%
    13:00 +24°C° 0 mm 1 mps 736 mmHg 24%
    14:00 +25°C° 0 mm 1 mps 735 mmHg 23%
    15:00 +24°C° 0 mm 1 mps 736 mmHg 25%
    16:00 +21°C° 0 mm 2 mps 736 mmHg 28%
    17:00 +20°C° 0 mm 2 mps 736 mmHg 30%
    18:00 +20°C° 0 mm 2 mps 736 mmHg 31%
    19:00 +19°C° 0 mm 3 mps 736 mmHg 33%
    20:00 +18°C° 0 mm 3 mps 737 mmHg 34%
    21:00 +18°C° 0 mm 3 mps 737 mmHg 36%
    22:00 +17°C° 0 mm 3 mps 737 mmHg 39%
    23:00 +16°C° 0 mm 3 mps 737 mmHg 41%

    Tomorrow, 6 June, Saturday

    Time Temperature Precipitation Wind Pressure Humidity
    00:00 +16°C° 0 mm 3 mps 736 mmHg 41%
    01:00 +14°C° 0 mm 3 mps 736 mmHg 42%
    02:00 +14°C° 0 mm 3 mps 735 mmHg 42%
    03:00 +13°C° 0 mm 3 mps 735 mmHg 43%
    04:00 +13°C° 0 mm 3 mps 736 mmHg 45%
    05:00 +13°C° 0 mm 2 mps 736 mmHg 46%
    06:00 +14°C° 0 mm 2 mps 736 mmHg 45%
    07:00 +14°C° 0 mm 2 mps 737 mmHg 44%
    08:00 +14°C° 0 mm 3 mps 737 mmHg 43%
    09:00 +17°C° 0 mm 3 mps 737 mmHg 39%
    10:00 +18°C° 0 mm 3 mps 737 mmHg 34%
    11:00 +20°C° 0 mm 4 mps 737 mmHg 30%
    12:00 +21°C° 0 mm 4 mps 737 mmHg 29%
    13:00 +22°C° 0 mm 4 mps 736 mmHg 27%
    14:00 +22°C° 0 mm 4 mps 735 mmHg 26%
    15:00 +21°C° 0 mm 4 mps 735 mmHg 29%
    16:00 +20°C° 0 mm 3 mps 736 mmHg 31%
    17:00 +19°C° 0 mm 3 mps 736 mmHg 34%
    18:00 +18°C° 0 mm 3 mps 736 mmHg 36%
    19:00 +17°C° 0 mm 4 mps 736 mmHg 38%
    20:00 +17°C° 0 mm 4 mps 736 mmHg 40%
    21:00 +15°C° 0 mm 4 mps 736 mmHg 41%
    22:00 +15°C° 0 mm 4 mps 736 mmHg 43%
    23:00 +14°C° 0 mm 4 mps 736 mmHg 45%

    Day after tomorrow, 7 June, Sunday

    Time Temperature Precipitation Wind Pressure Humidity
    00:00 +13°C° 0 mm 4 mps 736 mmHg 47%
    01:00 +13°C° 0 mm 4 mps 735 mmHg 49%
    02:00 +12°C° 0 mm 4 mps 735 mmHg 51%
    03:00 +12°C° 0 mm 4 mps 735 mmHg 52%
    04:00 +12°C° 0 mm 4 mps 735 mmHg 54%
    05:00 +11°C° 0 mm 4 mps 735 mmHg 55%
    06:00 +10°C° 0 mm 5 mps 735 mmHg 56%
    07:00 +12°C° 0 mm 5 mps 735 mmHg 56%
    08:00 +12°C° 0 mm 5 mps 735 mmHg 56%
    09:00 +14°C° 0 mm 5 mps 735 mmHg 50%
    10:00 +16°C° 0 mm 5 mps 735 mmHg 45%
    11:00 +19°C° 0 mm 6 mps 735 mmHg 39%
    12:00 +19°C° 0 mm 5 mps 735 mmHg 37%
    13:00 +20°C° 0 mm 4 mps 734 mmHg 35%
    14:00 +20°C° 0 mm 4 mps 733 mmHg 33%
    15:00 +19°C° 0 mm 4 mps 733 mmHg 35%
    16:00 +18°C° 0 mm 3 mps 733 mmHg 38%
    17:00 +17°C° 0 mm 3 mps 734 mmHg 40%
    18:00 +17°C° 0 mm 3 mps 734 mmHg 42%
    19:00 +15°C° 0 mm 4 mps 734 mmHg 45%
    20:00 +14°C° 0 mm 4 mps 734 mmHg 47%
    21:00 +13°C° 0 mm 4 mps 735 mmHg 49%
    22:00 +13°C° 0 mm 4 mps 735 mmHg 51%
    23:00 +12°C° 0 mm 4 mps 735 mmHg 53%

    8 June, Monday

    Time Temperature Precipitation Wind Pressure Humidity
    00:00 +12°C° 0 mm 4 mps 735 mmHg 54%
    01:00 +11°C° 0 mm 4 mps 735 mmHg 56%
    02:00 +11°C° 0 mm 3 mps 734 mmHg 57%
    03:00 +10°C° 0 mm 3 mps 734 mmHg 58%
    04:00 +10°C° 0 mm 3 mps 734 mmHg 60%
    05:00 +9°C° 0 mm 3 mps 735 mmHg 61%
    06:00 +10°C° 0 mm 2 mps 735 mmHg 59%
    07:00 +10°C° 0 mm 2 mps 735 mmHg 57%
    08:00 +12°C° 0 mm 2 mps 735 mmHg 56%
    09:00 +14°C° 0 mm 2 mps 735 mmHg 50%
    10:00 +16°C° 0 mm 2 mps 735 mmHg 45%
    11:00 +18°C° 0 mm 2 mps 735 mmHg 39%
    12:00 +18°C° 0 mm 2 mps 734 mmHg 37%
    13:00 +20°C° 0 mm 1 mps 734 mmHg 34%
    14:00 +21°C° 0 mm 1 mps 733 mmHg 32%
    15:00 +19°C° 0 mm 1 mps 733 mmHg 35%
    16:00 +18°C° 0 mm 1 mps 733 mmHg 38%
    17:00 +16°C° 0 mm 1 mps 733 mmHg 41%
    18:00 +15°C° 0 mm 1 mps 734 mmHg 41%
    19:00 +15°C° 0 mm 2 mps 734 mmHg 41%
    20:00 +14°C° 0 mm 3 mps 735 mmHg 41%
    21:00 +13°C° 0 mm 3 mps 735 mmHg 43%
    22:00 +13°C° 0 mm 3 mps 735 mmHg 44%
    23:00 +12°C° 0 mm 3 mps 735 mmHg 46%

    9 June, Tuesday

    Time Temperature Precipitation Wind Pressure Humidity
    00:00 +12°C° 0 mm 3 mps 735 mmHg 48%
    01:00 +11°C° 0 mm 3 mps 735 mmHg 50%
    02:00 +11°C° 0 mm 3 mps 735 mmHg 52%
    03:00 +10°C° 0 mm 3 mps 735 mmHg 54%
    04:00 +10°C° 0 mm 3 mps 735 mmHg 55%
    05:00 +10°C° 0 mm 3 mps 735 mmHg 57%
    06:00 +10°C° 0 mm 3 mps 735 mmHg 56%
    07:00 +11°C° 0 mm 3 mps 735 mmHg 54%
    08:00 +11°C° 0 mm 3 mps 736 mmHg 53%
    09:00 +13°C° 0 mm 3 mps 735 mmHg 47%
    10:00 +17°C° 0 mm 3 mps 735 mmHg 40%
    11:00 +19°C° 0 mm 4 mps 735 mmHg 34%
    12:00 +19°C° 0 mm 3 mps 735 mmHg 31%
    13:00 +20°C° 0 mm 3 mps 734 mmHg 29%
    14:00 +21°C° 0 mm 3 mps 734 mmHg 26%
    15:00 +19°C° 0 mm 2 mps 734 mmHg 30%
    16:00 +18°C° 0 mm 1 mps 734 mmHg 33%
    17:00 +16°C° 0 mm 1 mps 733 mmHg 37%
    18:00 +16°C° 0 mm 1 mps 734 mmHg 36%
    19:00 +16°C° 0 mm 2 mps 734 mmHg 35%
    20:00 +16°C° 0 mm 3 mps 734 mmHg 35%
    21:00 +14°C° 0 mm 3 mps 734 mmHg 36%
    22:00 +14°C° 0 mm 3 mps 734 mmHg 37%
    23:00 +13°C° 0 mm 3 mps 734 mmHg 37%

    10 June, Wednesday

    Time Temperature Precipitation Wind Pressure Humidity
    00:00 +13°C° 0 mm 4 mps 734 mmHg 39%
    01:00 +13°C° 0 mm 4 mps 734 mmHg 40%
    02:00 +12°C° 0 mm 4 mps 734 mmHg 41%
    03:00 +12°C° 0 mm 4 mps 734 mmHg 41%
    04:00 +11°C° 0 mm 4 mps 734 mmHg 42%
    05:00 +11°C° 0 mm 4 mps 733 mmHg 42%
    06:00 +11°C° 0 mm 4 mps 734 mmHg 41%
    07:00 +12°C° 0 mm 4 mps 734 mmHg 41%
    08:00 +12°C° 0 mm 4 mps 734 mmHg 40%
    09:00 +15°C° 0 mm 5 mps 734 mmHg 35%
    10:00 +17°C° 0 mm 6 mps 734 mmHg 29%
    11:00 +20°C° 0 mm 7 mps 733 mmHg 24%
    12:00 +21°C° 0 mm 7 mps 733 mmHg 22%
    13:00 +22°C° 0 mm 7 mps 732 mmHg 20%
    14:00 +23°C° 0 mm 6 mps 732 mmHg 19%
    15:00 +22°C° 0 mm 6 mps 731 mmHg 21%
    16:00 +21°C° 0 mm 5 mps 731 mmHg 23%
    17:00 +20°C° 0 mm 4 mps 731 mmHg 26%
    18:00 +19°C° 0 mm 4 mps 731 mmHg 27%
    19:00 +18°C° 0 mm 4 mps 731 mmHg 29%
    20:00 +17°C° 0 mm 5 mps 731 mmHg 31%
    21:00 +16°C° 0 mm 5 mps 731 mmHg 32%
    22:00 +16°C° 0 mm 5 mps 731 mmHg 34%
    23:00 +15°C° 0 mm 5 mps 730 mmHg 35%
    Show more